Pensacola, FL

1:05 AM CDT on March 26, 2017 (GMT -0500)
Pensacola Regional

Weather History for KPNS - October, 2012

Change the Weather History Date:

Saturday, October 13, 2012

  Actual Average Record
Temperature  
Mean Temperature 76 °F 70 °F  
Max Temperature 84 °F 80 °F 89 °F (1884)
Min Temperature 67 °F 61 °F 43 °F (1977)
Degree Days  
Heating Degree Days 0 1  
Month to date heating degree days 0 3  
Since 1 July heating degree days 0 4  
Cooling Degree Days 11 6  
Month to date cooling degree days 106 100  
Year to date cooling degree days 2918 2470  
Growing Degree Days 25 (Base 50)    
Moisture  
Dew Point 65 °F    
Average Humidity 71    
Maximum Humidity 87    
Minimum Humidity 55    
Precipitation  
Precipitation 0.00 in 0.16 in 2.62 in (2014)
Month to date precipitation 0.37 2.25  
Year to date precipitation 61.14 53.00  
Sea Level Pressure  
Sea Level Pressure 30.19 in    
Wind  
Wind Speed 7 mph (ESE)    
Max Wind Speed 14 mph    
Max Gust Speed 17 mph    
Visibility 10 miles    
Events      
T = Trace of Precipitation, MM = Missing Value Source: NWS Daily Summary

Daily Weather History Graph

Daily Weather History Graph

Search for Another Location

Airport or City:

Trip Planner

Search our weather history database for the weather conditions in past years. The results will help you decide how hot, cold, wet, or windy it might be!

Date:

Astronomy

Oct. 13, 2012 Rise Set
Actual Time 6:50 AM CDT 6:19 PM CDT
Civil Twilight 6:25 AM CDT 6:43 PM CDT
Nautical Twilight 5:57 AM CDT 7:11 PM CDT
Astronomical Twilight 5:30 AM CDT 7:39 PM CDT
Moon 4:45 AM CDT (10/13) 4:58 PM CDT (10/13)
Length of Visible Light 12h 17m
Length of Day
11h 29m
Waning Crescent, 5% of the Moon is Illuminated
Oct 13
Waning Crescent
Oct 15
New
Oct 21
First Quarter
Oct 29
Full
Nov 6
Last Quarter

Hourly Weather History & Observations

Time (CDT) Temp. Heat Index Dew Point Humidity Pressure Visibility Wind Dir Wind Speed Gust Speed Precip Events Conditions
12:53 AM 68.0 °F - 64.0 °F 87% 30.20 in 10.0 mi North 3.5 mph - N/A   Clear
1:53 AM 66.9 °F - 63.0 °F 87% 30.19 in 10.0 mi Calm Calm - N/A   Clear
2:53 AM 68.0 °F - 62.1 °F 81% 30.18 in 10.0 mi North 3.5 mph - N/A   Clear
3:53 AM 68.0 °F - 62.1 °F 81% 30.19 in 10.0 mi North 4.6 mph - N/A   Clear
4:53 AM 66.9 °F - 61.0 °F 81% 30.19 in 10.0 mi NNE 4.6 mph - N/A   Clear
5:53 AM 69.1 °F - 62.1 °F 78% 30.21 in 10.0 mi ENE 4.6 mph - N/A   Clear
6:53 AM 68.0 °F - 62.1 °F 81% 30.23 in 10.0 mi East 3.5 mph - N/A   Clear
7:53 AM 70.0 °F - 63.0 °F 78% 30.24 in 10.0 mi East 3.5 mph - N/A   Clear
8:53 AM 73.0 °F - 63.0 °F 71% 30.24 in 10.0 mi East 5.8 mph - N/A   Clear
9:53 AM 77.0 °F - 63.0 °F 62% 30.25 in 10.0 mi ESE 9.2 mph - N/A   Clear
10:53 AM 80.1 °F 81.7 °F 64.0 °F 58% 30.25 in 10.0 mi East 6.9 mph - N/A   Clear
11:53 AM 82.0 °F 83.4 °F 64.0 °F 54% 30.23 in 10.0 mi SE 6.9 mph - N/A   Clear
12:53 PM 82.9 °F 84.6 °F 64.9 °F 54% 30.21 in 10.0 mi SE 9.2 mph - N/A   Clear
1:53 PM 84.0 °F 86.5 °F 66.9 °F 56% 30.18 in 10.0 mi SSE 11.5 mph - N/A   Clear
2:53 PM 82.9 °F 85.0 °F 66.0 °F 56% 30.16 in 10.0 mi SSE 12.7 mph - N/A   Clear
3:53 PM 82.0 °F 83.8 °F 64.9 °F 56% 30.15 in 10.0 mi SE 9.2 mph - N/A   Clear
4:53 PM 81.0 °F 83.3 °F 66.9 °F 62% 30.15 in 10.0 mi SSE 8.1 mph - N/A   Clear
5:53 PM 78.1 °F - 70.0 °F 76% 30.15 in 10.0 mi SSE 8.1 mph - N/A   Clear
6:53 PM 77.0 °F - 69.8 °F 78% 30.15 in 10.0 mi SSE 6.9 mph - N/A   Clear
7:53 PM 75.9 °F - 69.1 °F 79% 30.16 in 10.0 mi SSE 8.1 mph - N/A   Partly Cloudy
8:53 PM 77.0 °F - 69.8 °F 78% 30.17 in 10.0 mi SE 6.9 mph - N/A   Scattered Clouds
9:53 PM 75.9 °F - 66.0 °F 71% 30.18 in 10.0 mi SSE 5.8 mph - N/A   Mostly Cloudy
10:53 PM 77.0 °F - 66.2 °F 69% 30.16 in 10.0 mi SE 5.8 mph - N/A   Overcast